M I D A S
Marine Information and Data Acquisition System
Tripno 1510 of the Zeeleeuw from 2008-06-25 06:06:34 to 2008-06-25 12:09:04
Back to CruiseResearch ActivitiesStationsMapUnderway DataData graphs

EquipmentUnitsComments
TimeDGPSUTC
LatitudeDGPSDM.mWGS84
LongitudeDGPSDM.mWGS84
SpeedMeteo Stationm/sRelative wind speed
DirectionMeteo StationdegRelative wind direction
TemperatureMeteo Stationdeg CelciusAir temperature
PressureMeteo StationPaAtmospheric pressure
HumidityMeteo Station%Relative humidity
Missing or incorrect values are displayed as -999
Metereological data collected by the RV Zeeleeuw from 2008-06-25 06:06:44 to 2008-06-25 12:12:41
                                                                                    Next 1000 lines
Time Latitude Longitude Speed Direction Temperature Pressure Humidity
2008-06-25 06:06:54 51°13.625 2°56.044 -999 -999 -999 -999 -999
2008-06-25 06:06:59 51°13.625 2°56.04 -999 -999 -999 -999 -999
2008-06-25 06:07:04 51°13.627 2°56.036 -999 -999 -999 -999 -999
2008-06-25 06:07:09 51°13.628 2°56.031 -999 -999 -999 -999 -999
2008-06-25 06:07:14 51°13.63 2°56.026 -999 -999 -999 -999 -999
2008-06-25 06:07:19 51°13.632 2°56.02 -999 -999 -999 -999 -999
2008-06-25 06:07:24 51°13.635 2°56.013 -999 -999 -999 -999 -999
2008-06-25 06:07:29 51°13.637 2°56.006 -999 -999 -999 -999 -999
2008-06-25 06:07:34 51°13.639 2°55.998 -999 -999 -999 -999 -999
2008-06-25 06:07:39 51°13.642 2°55.99 -999 -999 -999 -999 -999
2008-06-25 06:07:44 51°13.645 2°55.982 -999 -999 -999 -999 -999
2008-06-25 06:07:49 51°13.648 2°55.973 -999 -999 -999 -999 -999
2008-06-25 06:07:54 51°13.651 2°55.964 -999 -999 -999 -999 -999
2008-06-25 06:07:59 51°13.654 2°55.955 -999 -999 -999 -999 -999
2008-06-25 06:08:04 51°13.657 2°55.946 -999 -999 -999 -999 -999
2008-06-25 06:08:09 51°13.66 2°55.936 -999 -999 -999 -999 -999
2008-06-25 06:08:14 51°13.663 2°55.927 -999 -999 -999 -999 -999
2008-06-25 06:08:19 51°13.666 2°55.917 -999 -999 -999 -999 -999
2008-06-25 06:08:24 51°13.67 2°55.908 -999 -999 -999 -999 -999
2008-06-25 06:08:29 51°13.673 2°55.898 -999 -999 -999 -999 -999
2008-06-25 06:08:34 51°13.677 2°55.888 -999 -999 -999 -999 -999
2008-06-25 06:08:39 51°13.68 2°55.878 -999 -999 -999 -999 -999
2008-06-25 06:08:44 51°13.684 2°55.869 -999 -999 -999 -999 -999
2008-06-25 06:08:49 51°13.688 2°55.859 -999 -999 -999 -999 -999
2008-06-25 06:08:54 51°13.692 2°55.85 -999 -999 -999 -999 -999
2008-06-25 06:08:59 51°13.697 2°55.84 -999 -999 -999 -999 -999
2008-06-25 06:09:04 51°13.701 2°55.83 -999 -999 -999 -999 -999
2008-06-25 06:09:09 51°13.705 2°55.821 -999 -999 -999 -999 -999
2008-06-25 06:09:14 51°13.71 2°55.811 -999 -999 -999 -999 -999
2008-06-25 06:09:19 51°13.714 2°55.802 -999 -999 -999 -999 -999
2008-06-25 06:09:24 51°13.719 2°55.792 -999 -999 -999 -999 -999
2008-06-25 06:09:29 51°13.723 2°55.782 -999 -999 -999 -999 -999
2008-06-25 06:09:34 51°13.728 2°55.772 -999 -999 -999 -999 -999
2008-06-25 06:09:39 51°13.733 2°55.763 -999 -999 -999 -999 -999
2008-06-25 06:09:44 51°13.737 2°55.753 -999 -999 -999 -999 -999
2008-06-25 06:09:49 51°13.742 2°55.744 -999 -999 -999 -999 -999
2008-06-25 06:09:54 51°13.747 2°55.734 -999 -999 -999 -999 -999
2008-06-25 06:09:59 51°13.752 2°55.725 -999 -999 -999 -999 -999
2008-06-25 06:10:04 51°13.758 2°55.716 -999 -999 -999 -999 -999
2008-06-25 06:10:09 51°13.763 2°55.708 -999 -999 -999 -999 -999
2008-06-25 06:10:14 51°13.768 2°55.7 -999 -999 -999 -999 -999
2008-06-25 06:10:19 51°13.774 2°55.691 -999 -999 -999 -999 -999
2008-06-25 06:10:24 51°13.78 2°55.684 -999 -999 -999 -999 -999
2008-06-25 06:10:29 51°13.785 2°55.676 -999 -999 -999 -999 -999
2008-06-25 06:10:34 51°13.792 2°55.669 -999 -999 -999 -999 -999
2008-06-25 06:10:39 51°13.798 2°55.663 -999 -999 -999 -999 -999
2008-06-25 06:10:44 51°13.804 2°55.657 -999 -999 -999 -999 -999
2008-06-25 06:10:49 51°13.811 2°55.651 -999 -999 -999 -999 -999
2008-06-25 06:10:54 51°13.818 2°55.646 -999 -999 -999 -999 -999
2008-06-25 06:10:59 51°13.825 2°55.641 -999 -999 -999 -999 -999
2008-06-25 06:11:04 51°13.832 2°55.637 -999 -999 -999 -999 -999
2008-06-25 06:11:09 51°13.839 2°55.634 -999 -999 -999 -999 -999
2008-06-25 06:11:14 51°13.846 2°55.631 -999 -999 -999 -999 -999
2008-06-25 06:11:19 51°13.853 2°55.629 -999 -999 -999 -999 -999
2008-06-25 06:11:24 51°13.86 2°55.628 -999 -999 -999 -999 -999
2008-06-25 06:11:29 51°13.866 2°55.627 -999 -999 -999 -999 -999
2008-06-25 06:11:34 51°13.873 2°55.628 -999 -999 -999 -999 -999
2008-06-25 06:11:39 51°13.88 2°55.628 -999 -999 -999 -999 -999
2008-06-25 06:11:44 51°13.887 2°55.629 -999 -999 -999 -999 -999
2008-06-25 06:11:49 51°13.893 2°55.631 -999 -999 -999 -999 -999
2008-06-25 06:11:54 51°13.9 2°55.634 -999 -999 -999 -999 -999
2008-06-25 06:11:59 51°13.906 2°55.637 -999 -999 -999 -999 -999
2008-06-25 06:12:04 51°13.912 2°55.641 -999 -999 -999 -999 -999
2008-06-25 06:12:09 51°13.918 2°55.646 -999 -999 -999 -999 -999
2008-06-25 06:12:14 51°13.923 2°55.65 -999 -999 -999 -999 -999
2008-06-25 06:12:19 51°13.927 2°55.654 -999 -999 -999 -999 -999
2008-06-25 06:12:24 51°13.932 2°55.658 -999 -999 -999 -999 -999
2008-06-25 06:12:29 51°13.935 2°55.662 -999 -999 -999 -999 -999
2008-06-25 06:12:34 51°13.938 2°55.664 -999 -999 -999 -999 -999
2008-06-25 06:12:39 51°13.939 2°55.665 -999 -999 -999 -999 -999
2008-06-25 06:12:44 51°13.939 2°55.664 -999 -999 -999 -999 -999
2008-06-25 06:12:49 51°13.939 2°55.662 -999 -999 -999 -999 -999
2008-06-25 06:12:54 51°13.939 2°55.657 -999 -999 -999 -999 -999
2008-06-25 06:12:59 51°13.939 2°55.651 -999 -999 -999 -999 -999
2008-06-25 06:13:04 51°13.94 2°55.644 -999 -999 -999 -999 -999
2008-06-25 06:13:09 51°13.941 2°55.636 -999 -999 -999 -999 -999
2008-06-25 06:13:14 51°13.944 2°55.628 -999 -999 -999 -999 -999
2008-06-25 06:13:19 51°13.947 2°55.619 -999 -999 -999 -999 -999
2008-06-25 06:13:24 51°13.951 2°55.611 -999 -999 -999 -999 -999
2008-06-25 06:13:29 51°13.955 2°55.604 -999 -999 -999 -999 -999
2008-06-25 06:13:34 51°13.96 2°55.595 -999 -999 -999 -999 -999
2008-06-25 06:13:39 51°13.966 2°55.586 -999 -999 -999 -999 -999
2008-06-25 06:13:44 51°13.972 2°55.577 -999 -999 -999 -999 -999
2008-06-25 06:13:49 51°13.98 2°55.567 -999 -999 -999 -999 -999
2008-06-25 06:13:54 51°13.988 2°55.557 -999 -999 -999 -999 -999
2008-06-25 06:13:59 51°13.996 2°55.546 -999 -999 -999 -999 -999
2008-06-25 06:14:04 51°14.005 2°55.535 -999 -999 -999 -999 -999
2008-06-25 06:14:09 51°14.015 2°55.525 -999 -999 -999 -999 -999
2008-06-25 06:14:14 51°14.025 2°55.514 -999 -999 -999 -999 -999
2008-06-25 06:14:19 51°14.035 2°55.503 -999 -999 -999 -999 -999
2008-06-25 06:14:24 51°14.046 2°55.493 -999 -999 -999 -999 -999
2008-06-25 06:14:29 51°14.057 2°55.482 -999 -999 -999 -999 -999
2008-06-25 06:14:34 51°14.069 2°55.471 -999 -999 -999 -999 -999
2008-06-25 06:14:39 51°14.08 2°55.461 -999 -999 -999 -999 -999
2008-06-25 06:14:44 51°14.092 2°55.45 -999 -999 -999 -999 -999
2008-06-25 06:14:49 51°14.104 2°55.439 -999 -999 -999 -999 -999
2008-06-25 06:14:54 51°14.117 2°55.429 -999 -999 -999 -999 -999
2008-06-25 06:14:59 51°14.129 2°55.417 -999 -999 -999 -999 -999
2008-06-25 06:15:04 51°14.141 2°55.406 -999 -999 -999 -999 -999
2008-06-25 06:15:09 51°14.153 2°55.393 -999 -999 -999 -999 -999
2008-06-25 06:15:14 51°14.164 2°55.38 -999 -999 -999 -999 -999
2008-06-25 06:15:19 51°14.176 2°55.366 -999 -999 -999 -999 -999
2008-06-25 06:15:24 51°14.187 2°55.353 -999 -999 -999 -999 -999
2008-06-25 06:15:29 51°14.199 2°55.339 -999 -999 -999 -999 -999
2008-06-25 06:15:34 51°14.209 2°55.324 -999 -999 -999 -999 -999
2008-06-25 06:15:39 51°14.22 2°55.308 -999 -999 -999 -999 -999
2008-06-25 06:15:44 51°14.231 2°55.293 -999 -999 -999 -999 -999
2008-06-25 06:15:49 51°14.241 2°55.276 -999 -999 -999 -999 -999
2008-06-25 06:15:54 51°14.251 2°55.26 -999 -999 -999 -999 -999
2008-06-25 06:15:59 51°14.262 2°55.242 -999 -999 -999 -999 -999
2008-06-25 06:16:04 51°14.272 2°55.224 -999 -999 -999 -999 -999
2008-06-25 06:16:09 51°14.282 2°55.206 -999 -999 -999 -999 -999
2008-06-25 06:16:14 51°14.293 2°55.188 -999 -999 -999 -999 -999
2008-06-25 06:16:19 51°14.303 2°55.168 -999 -999 -999 -999 -999
2008-06-25 06:16:24 51°14.314 2°55.149 -999 -999 -999 -999 -999
2008-06-25 06:16:29 51°14.324 2°55.13 -999 -999 -999 -999 -999
2008-06-25 06:16:34 51°14.335 2°55.11 -999 -999 -999 -999 -999
2008-06-25 06:16:39 51°14.346 2°55.089 -999 -999 -999 -999 -999
2008-06-25 06:16:44 51°14.356 2°55.069 -999 -999 -999 -999 -999
2008-06-25 06:16:49 51°14.367 2°55.049 -999 -999 -999 -999 -999
2008-06-25 06:16:54 51°14.377 2°55.029 -999 -999 -999 -999 -999
2008-06-25 06:16:59 51°14.388 2°55.008 -999 -999 -999 -999 -999
2008-06-25 06:17:04 51°14.399 2°54.987 -999 -999 -999 -999 -999
2008-06-25 06:17:09 51°14.41 2°54.967 -999 -999 -999 -999 -999
2008-06-25 06:17:14 51°14.421 2°54.947 -999 -999 -999 -999 -999
2008-06-25 06:17:19 51°14.432 2°54.926 -999 -999 -999 -999 -999
2008-06-25 06:17:24 51°14.442 2°54.905 -999 -999 -999 -999 -999
2008-06-25 06:17:29 51°14.453 2°54.883 -999 -999 -999 -999 -999
2008-06-25 06:17:34 51°14.463 2°54.861 -999 -999 -999 -999 -999
2008-06-25 06:17:39 51°14.473 2°54.839 -999 -999 -999 -999 -999
2008-06-25 06:17:44 51°14.482 2°54.816 -999 -999 -999 -999 -999
2008-06-25 06:17:49 51°14.491 2°54.793 -999 -999 -999 -999 -999
2008-06-25 06:17:54 51°14.499 2°54.77 -999 -999 -999 -999 -999
2008-06-25 06:17:59 51°14.507 2°54.747 -999 -999 -999 -999 -999
2008-06-25 06:18:04 51°14.514 2°54.723 -999 -999 -999 -999 -999
2008-06-25 06:18:09 51°14.521 2°54.699 -999 -999 -999 -999 -999
2008-06-25 06:18:14 51°14.527 2°54.675 -999 -999 -999 -999 -999
2008-06-25 06:18:19 51°14.534 2°54.651 -999 -999 -999 -999 -999
2008-06-25 06:18:24 51°14.54 2°54.626 -999 -999 -999 -999 -999
2008-06-25 06:18:29 51°14.547 2°54.602 -999 -999 -999 -999 -999
2008-06-25 06:18:34 51°14.553 2°54.578 -999 -999 -999 -999 -999
2008-06-25 06:18:39 51°14.559 2°54.554 -999 -999 -999 -999 -999
2008-06-25 06:18:44 51°14.565 2°54.53 -999 -999 -999 -999 -999
2008-06-25 06:18:49 51°14.571 2°54.505 -999 -999 -999 -999 -999
2008-06-25 06:18:54 51°14.577 2°54.481 -999 -999 -999 -999 -999
2008-06-25 06:18:59 51°14.583 2°54.456 -999 -999 -999 -999 -999
2008-06-25 06:19:04 51°14.589 2°54.432 -999 -999 -999 -999 -999
2008-06-25 06:19:09 51°14.595 2°54.408 -999 -999 -999 -999 -999
2008-06-25 06:19:14 51°14.602 2°54.384 -999 -999 -999 -999 -999
2008-06-25 06:19:19 51°14.609 2°54.36 -999 -999 -999 -999 -999
2008-06-25 06:19:24 51°14.616 2°54.336 -999 -999 -999 -999 -999
2008-06-25 06:19:29 51°14.623 2°54.313 -999 -999 -999 -999 -999
2008-06-25 06:19:34 51°14.631 2°54.289 -999 -999 -999 -999 -999
2008-06-25 06:19:39 51°14.638 2°54.265 -999 -999 -999 -999 -999
2008-06-25 06:19:44 51°14.646 2°54.242 -999 -999 -999 -999 -999
2008-06-25 06:19:49 51°14.653 2°54.218 -999 -999 -999 -999 -999
2008-06-25 06:19:54 51°14.66 2°54.194 -999 -999 -999 -999 -999
2008-06-25 06:19:59 51°14.667 2°54.17 -999 -999 -999 -999 -999
2008-06-25 06:20:04 51°14.675 2°54.146 -999 -999 -999 -999 -999
2008-06-25 06:20:09 51°14.682 2°54.123 -999 -999 -999 -999 -999
2008-06-25 06:20:14 51°14.688 2°54.098 -999 -999 -999 -999 -999
2008-06-25 06:20:19 51°14.694 2°54.074 -999 -999 -999 -999 -999
2008-06-25 06:20:24 51°14.699 2°54.049 -999 -999 -999 -999 -999
2008-06-25 06:20:29 51°14.704 2°54.024 -999 -999 -999 -999 -999
2008-06-25 06:20:34 51°14.708 2°53.999 -999 -999 -999 -999 -999
2008-06-25 06:20:39 51°14.712 2°53.973 -999 -999 -999 -999 -999
2008-06-25 06:20:44 51°14.715 2°53.948 -999 -999 -999 -999 -999
2008-06-25 06:20:49 51°14.716 2°53.923 -999 -999 -999 -999 -999
2008-06-25 06:20:54 51°14.718 2°53.897 -999 -999 -999 -999 -999
2008-06-25 06:20:59 51°14.717 2°53.872 -999 -999 -999 -999 -999
2008-06-25 06:21:04 51°14.719 2°53.847 -999 -999 -999 -999 -999
2008-06-25 06:21:09 51°14.717 2°53.821 -999 -999 -999 -999 -999
2008-06-25 06:21:14 51°14.717 2°53.796 -999 -999 -999 -999 -999
2008-06-25 06:21:19 51°14.716 2°53.77 -999 -999 -999 -999 -999
2008-06-25 06:21:24 51°14.715 2°53.744 -999 -999 -999 -999 -999
2008-06-25 06:21:29 51°14.714 2°53.718 -999 -999 -999 -999 -999
2008-06-25 06:21:34 51°14.713 2°53.693 -999 -999 -999 -999 -999
2008-06-25 06:21:39 51°14.713 2°53.667 -999 -999 -999 -999 -999
2008-06-25 06:21:44 51°14.713 2°53.641 -999 -999 -999 -999 -999
2008-06-25 06:21:49 51°14.712 2°53.615 -999 -999 -999 -999 -999
2008-06-25 06:21:54 51°14.713 2°53.588 -999 -999 -999 -999 -999
2008-06-25 06:21:59 51°14.712 2°53.562 -999 -999 -999 -999 -999
2008-06-25 06:22:04 51°14.712 2°53.536 -999 -999 -999 -999 -999
2008-06-25 06:22:09 51°14.713 2°53.51 -999 -999 -999 -999 -999
2008-06-25 06:22:14 51°14.713 2°53.484 -999 -999 -999 -999 -999
2008-06-25 06:22:19 51°14.714 2°53.458 -999 -999 -999 -999 -999
2008-06-25 06:22:24 51°14.715 2°53.432 -999 -999 -999 -999 -999
2008-06-25 06:22:29 51°14.717 2°53.406 -999 -999 -999 -999 -999
2008-06-25 06:22:34 51°14.718 2°53.381 -999 -999 -999 -999 -999
2008-06-25 06:22:39 51°14.72 2°53.355 -999 -999 -999 -999 -999
2008-06-25 06:22:44 51°14.721 2°53.329 -999 -999 -999 -999 -999
2008-06-25 06:22:49 51°14.723 2°53.303 -999 -999 -999 -999 -999
2008-06-25 06:22:54 51°14.724 2°53.277 -999 -999 -999 -999 -999
2008-06-25 06:22:59 51°14.725 2°53.251 -999 -999 -999 -999 -999
2008-06-25 06:23:04 51°14.727 2°53.225 -999 -999 -999 -999 -999
2008-06-25 06:23:09 51°14.729 2°53.199 -999 -999 -999 -999 -999
2008-06-25 06:23:14 51°14.731 2°53.173 -999 -999 -999 -999 -999
2008-06-25 06:23:19 51°14.732 2°53.147 -999 -999 -999 -999 -999
2008-06-25 06:23:24 51°14.735 2°53.121 -999 -999 -999 -999 -999
2008-06-25 06:23:29 51°14.737 2°53.096 -999 -999 -999 -999 -999
2008-06-25 06:23:34 51°14.739 2°53.07 -999 -999 -999 -999 -999
2008-06-25 06:23:39 51°14.742 2°53.044 -999 -999 -999 -999 -999
2008-06-25 06:23:44 51°14.745 2°53.018 -999 -999 -999 -999 -999
2008-06-25 06:23:49 51°14.748 2°52.992 -999 -999 -999 -999 -999
2008-06-25 06:23:54 51°14.75 2°52.965 -999 -999 -999 -999 -999
2008-06-25 06:23:59 51°14.753 2°52.939 -999 -999 -999 -999 -999
2008-06-25 06:24:04 51°14.755 2°52.913 -999 -999 -999 -999 -999
2008-06-25 06:24:09 51°14.758 2°52.887 -999 -999 -999 -999 -999
2008-06-25 06:24:14 51°14.76 2°52.861 -999 -999 -999 -999 -999
2008-06-25 06:24:19 51°14.762 2°52.835 -999 -999 -999 -999 -999
2008-06-25 06:24:24 51°14.764 2°52.809 -999 -999 -999 -999 -999
2008-06-25 06:24:29 51°14.766 2°52.783 -999 -999 -999 -999 -999
2008-06-25 06:24:34 51°14.768 2°52.757 -999 -999 -999 -999 -999
2008-06-25 06:24:39 51°14.77 2°52.731 -999 -999 -999 -999 -999
2008-06-25 06:24:44 51°14.772 2°52.705 -999 -999 -999 -999 -999
2008-06-25 06:24:49 51°14.774 2°52.679 -999 -999 -999 -999 -999
2008-06-25 06:24:54 51°14.775 2°52.653 -999 -999 -999 -999 -999
2008-06-25 06:24:59 51°14.777 2°52.627 -999 -999 -999 -999 -999
2008-06-25 06:25:04 51°14.779 2°52.601 -999 -999 -999 -999 -999
2008-06-25 06:25:09 51°14.781 2°52.575 -999 -999 -999 -999 -999
2008-06-25 06:25:14 51°14.783 2°52.549 -999 -999 -999 -999 -999
2008-06-25 06:25:19 51°14.784 2°52.523 -999 -999 -999 -999 -999
2008-06-25 06:25:24 51°14.785 2°52.497 -999 -999 -999 -999 -999
2008-06-25 06:25:29 51°14.786 2°52.471 -999 -999 -999 -999 -999
2008-06-25 06:25:34 51°14.787 2°52.445 -999 -999 -999 -999 -999
2008-06-25 06:25:39 51°14.788 2°52.418 -999 -999 -999 -999 -999
2008-06-25 06:25:44 51°14.788 2°52.392 -999 -999 -999 -999 -999
2008-06-25 06:25:49 51°14.789 2°52.366 -999 -999 -999 -999 -999
2008-06-25 06:25:54 51°14.79 2°52.34 -999 -999 -999 -999 -999
2008-06-25 06:25:59 51°14.791 2°52.314 -999 -999 -999 -999 -999
2008-06-25 06:26:04 51°14.792 2°52.287 -999 -999 -999 -999 -999
2008-06-25 06:26:09 51°14.793 2°52.261 -999 -999 -999 -999 -999
2008-06-25 06:26:14 51°14.794 2°52.235 -999 -999 -999 -999 -999
2008-06-25 06:26:19 51°14.795 2°52.208 -999 -999 -999 -999 -999
2008-06-25 06:26:24 51°14.796 2°52.182 -999 -999 -999 -999 -999
2008-06-25 06:26:29 51°14.798 2°52.156 -999 -999 -999 -999 -999
2008-06-25 06:26:34 51°14.799 2°52.129 -999 -999 -999 -999 -999
2008-06-25 06:26:39 51°14.8 2°52.103 -999 -999 -999 -999 -999
2008-06-25 06:26:44 51°14.801 2°52.076 -999 -999 -999 -999 -999
2008-06-25 06:26:49 51°14.802 2°52.05 -999 -999 -999 -999 -999
2008-06-25 06:26:54 51°14.803 2°52.023 -999 -999 -999 -999 -999
2008-06-25 06:26:59 51°14.804 2°51.996 -999 -999 -999 -999 -999
2008-06-25 06:27:04 51°14.805 2°51.97 -999 -999 -999 -999 -999
2008-06-25 06:27:09 51°14.807 2°51.943 -999 -999 -999 -999 -999
2008-06-25 06:27:14 51°14.808 2°51.917 -999 -999 -999 -999 -999
2008-06-25 06:27:19 51°14.81 2°51.89 -999 -999 -999 -999 -999
2008-06-25 06:27:24 51°14.811 2°51.864 -999 -999 -999 -999 -999
2008-06-25 06:27:29 51°14.813 2°51.837 -999 -999 -999 -999 -999
2008-06-25 06:27:34 51°14.814 2°51.811 -999 -999 -999 -999 -999
2008-06-25 06:27:39 51°14.816 2°51.784 -999 -999 -999 -999 -999
2008-06-25 06:27:44 51°14.817 2°51.758 -999 -999 -999 -999 -999
2008-06-25 06:27:49 51°14.819 2°51.732 -999 -999 -999 -999 -999
2008-06-25 06:27:54 51°14.821 2°51.705 -999 -999 -999 -999 -999
2008-06-25 06:27:59 51°14.823 2°51.679 -999 -999 -999 -999 -999
2008-06-25 06:28:04 51°14.826 2°51.653 -999 -999 -999 -999 -999
2008-06-25 06:28:09 51°14.829 2°51.627 -999 -999 -999 -999 -999
2008-06-25 06:28:14 51°14.831 2°51.6 -999 -999 -999 -999 -999
2008-06-25 06:28:19 51°14.834 2°51.574 -999 -999 -999 -999 -999
2008-06-25 06:28:24 51°14.836 2°51.548 -999 -999 -999 -999 -999
2008-06-25 06:28:29 51°14.839 2°51.522 -999 -999 -999 -999 -999
2008-06-25 06:28:34 51°14.841 2°51.495 -999 -999 -999 -999 -999
2008-06-25 06:28:39 51°14.844 2°51.469 -999 -999 -999 -999 -999
2008-06-25 06:28:44 51°14.846 2°51.443 -999 -999 -999 -999 -999
2008-06-25 06:28:49 51°14.849 2°51.417 -999 -999 -999 -999 -999
2008-06-25 06:28:54 51°14.851 2°51.391 -999 -999 -999 -999 -999
2008-06-25 06:28:59 51°14.854 2°51.365 -999 -999 -999 -999 -999
2008-06-25 06:29:04 51°14.856 2°51.338 -999 -999 -999 -999 -999
2008-06-25 06:29:09 51°14.859 2°51.312 -999 -999 -999 -999 -999
2008-06-25 06:29:14 51°14.861 2°51.286 -999 -999 -999 -999 -999
2008-06-25 06:29:19 51°14.864 2°51.26 -999 -999 -999 -999 -999
2008-06-25 06:29:24 51°14.866 2°51.234 -999 -999 -999 -999 -999
2008-06-25 06:29:29 51°14.869 2°51.207 -999 -999 -999 -999 -999
2008-06-25 06:29:34 51°14.871 2°51.181 -999 -999 -999 -999 -999
2008-06-25 06:29:39 51°14.874 2°51.155 -999 -999 -999 -999 -999
2008-06-25 06:29:44 51°14.876 2°51.129 -999 -999 -999 -999 -999
2008-06-25 06:29:49 51°14.878 2°51.102 -999 -999 -999 -999 -999
2008-06-25 06:29:54 51°14.881 2°51.076 -999 -999 -999 -999 -999
2008-06-25 06:29:59 51°14.883 2°51.05 -999 -999 -999 -999 -999
2008-06-25 06:30:04 51°14.886 2°51.023 -999 -999 -999 -999 -999
2008-06-25 06:30:09 51°14.888 2°50.997 -999 -999 -999 -999 -999
2008-06-25 06:30:14 51°14.89 2°50.971 -999 -999 -999 -999 -999
2008-06-25 06:30:19 51°14.892 2°50.945 -999 -999 -999 -999 -999
2008-06-25 06:30:24 51°14.894 2°50.919 -999 -999 -999 -999 -999
2008-06-25 06:30:29 51°14.896 2°50.892 -999 -999 -999 -999 -999
2008-06-25 06:30:34 51°14.898 2°50.866 -999 -999 -999 -999 -999
2008-06-25 06:30:39 51°14.9 2°50.839 -999 -999 -999 -999 -999
2008-06-25 06:30:44 51°14.902 2°50.813 -999 -999 -999 -999 -999
2008-06-25 06:30:49 51°14.904 2°50.787 -999 -999 -999 -999 -999
2008-06-25 06:30:54 51°14.906 2°50.761 -999 -999 -999 -999 -999
2008-06-25 06:30:59 51°14.908 2°50.734 -999 -999 -999 -999 -999
2008-06-25 06:31:04 51°14.91 2°50.708 -999 -999 -999 -999 -999
2008-06-25 06:31:09 51°14.913 2°50.682 -999 -999 -999 -999 -999
2008-06-25 06:31:14 51°14.914 2°50.656 -999 -999 -999 -999 -999
2008-06-25 06:31:19 51°14.917 2°50.629 -999 -999 -999 -999 -999
2008-06-25 06:31:24 51°14.919 2°50.603 -999 -999 -999 -999 -999
2008-06-25 06:31:29 51°14.921 2°50.577 -999 -999 -999 -999 -999
2008-06-25 06:31:34 51°14.923 2°50.552 -999 -999 -999 -999 -999
2008-06-25 06:31:39 51°14.925 2°50.526 -999 -999 -999 -999 -999
2008-06-25 06:31:44 51°14.928 2°50.5 -999 -999 -999 -999 -999
2008-06-25 06:31:49 51°14.93 2°50.474 -999 -999 -999 -999 -999
2008-06-25 06:31:54 51°14.932 2°50.447 -999 -999 -999 -999 -999
2008-06-25 06:31:59 51°14.934 2°50.421 -999 -999 -999 -999 -999
2008-06-25 06:32:04 51°14.936 2°50.396 -999 -999 -999 -999 -999
2008-06-25 06:32:09 51°14.938 2°50.369 -999 -999 -999 -999 -999
2008-06-25 06:32:14 51°14.94 2°50.343 -999 -999 -999 -999 -999
2008-06-25 06:32:19 51°14.941 2°50.317 -999 -999 -999 -999 -999
2008-06-25 06:32:24 51°14.942 2°50.291 -999 -999 -999 -999 -999
2008-06-25 06:32:29 51°14.943 2°50.265 -999 -999 -999 -999 -999
2008-06-25 06:32:34 51°14.943 2°50.239 -999 -999 -999 -999 -999
2008-06-25 06:32:39 51°14.944 2°50.213 -999 -999 -999 -999 -999
2008-06-25 06:32:44 51°14.945 2°50.187 -999 -999 -999 -999 -999
2008-06-25 06:32:49 51°14.947 2°50.16 -999 -999 -999 -999 -999
2008-06-25 06:32:54 51°14.948 2°50.134 -999 -999 -999 -999 -999
2008-06-25 06:32:59 51°14.949 2°50.108 -999 -999 -999 -999 -999
2008-06-25 06:33:04 51°14.95 2°50.082 -999 -999 -999 -999 -999
2008-06-25 06:33:09 51°14.952 2°50.055 -999 -999 -999 -999 -999
2008-06-25 06:33:14 51°14.953 2°50.029 -999 -999 -999 -999 -999
2008-06-25 06:33:19 51°14.955 2°50.003 -999 -999 -999 -999 -999
2008-06-25 06:33:24 51°14.956 2°49.976 -999 -999 -999 -999 -999
2008-06-25 06:33:29 51°14.958 2°49.95 -999 -999 -999 -999 -999
2008-06-25 06:33:34 51°14.959 2°49.923 -999 -999 -999 -999 -999
2008-06-25 06:33:39 51°14.961 2°49.897 -999 -999 -999 -999 -999
2008-06-25 06:33:44 51°14.964 2°49.871 -999 -999 -999 -999 -999
2008-06-25 06:33:49 51°14.966 2°49.844 -999 -999 -999 -999 -999
2008-06-25 06:33:54 51°14.97 2°49.818 -999 -999 -999 -999 -999
2008-06-25 06:33:59 51°14.972 2°49.791 -999 -999 -999 -999 -999
2008-06-25 06:34:04 51°14.974 2°49.764 -999 -999 -999 -999 -999
2008-06-25 06:34:09 51°14.977 2°49.738 -999 -999 -999 -999 -999
2008-06-25 06:34:14 51°14.979 2°49.712 -999 -999 -999 -999 -999
2008-06-25 06:34:19 51°14.982 2°49.686 -999 -999 -999 -999 -999
2008-06-25 06:34:24 51°14.984 2°49.66 -999 -999 -999 -999 -999
2008-06-25 06:34:29 51°14.986 2°49.634 -999 -999 -999 -999 -999
2008-06-25 06:34:34 51°14.987 2°49.607 -999 -999 -999 -999 -999
2008-06-25 06:34:39 51°14.989 2°49.581 -999 -999 -999 -999 -999
2008-06-25 06:34:44 51°14.99 2°49.555 -999 -999 -999 -999 -999
2008-06-25 06:34:49 51°14.991 2°49.529 -999 -999 -999 -999 -999
2008-06-25 06:34:54 51°14.993 2°49.503 -999 -999 -999 -999 -999
2008-06-25 06:34:59 51°14.994 2°49.477 -999 -999 -999 -999 -999
2008-06-25 06:35:04 51°14.995 2°49.451 -999 -999 -999 -999 -999
2008-06-25 06:35:09 51°14.996 2°49.425 -999 -999 -999 -999 -999
2008-06-25 06:35:14 51°14.997 2°49.399 -999 -999 -999 -999 -999
2008-06-25 06:35:19 51°14.999 2°49.374 -999 -999 -999 -999 -999
2008-06-25 06:35:24 51°15 2°49.347 -999 -999 -999 -999 -999
2008-06-25 06:35:29 51°15.001 2°49.322 -999 -999 -999 -999 -999
2008-06-25 06:35:34 51°15.003 2°49.295 -999 -999 -999 -999 -999
2008-06-25 06:35:39 51°15.004 2°49.269 -999 -999 -999 -999 -999
2008-06-25 06:35:44 51°15.006 2°49.243 -999 -999 -999 -999 -999
2008-06-25 06:35:49 51°15.007 2°49.217 -999 -999 -999 -999 -999
2008-06-25 06:35:54 51°15.008 2°49.191 -999 -999 -999 -999 -999
2008-06-25 06:35:59 51°15.01 2°49.164 -999 -999 -999 -999 -999
2008-06-25 06:36:04 51°15.011 2°49.139 -999 -999 -999 -999 -999
2008-06-25 06:36:09 51°15.013 2°49.112 -999 -999 -999 -999 -999
2008-06-25 06:36:14 51°15.014 2°49.086 -999 -999 -999 -999 -999
2008-06-25 06:36:19 51°15.015 2°49.06 -999 -999 -999 -999 -999
2008-06-25 06:36:24 51°15.017 2°49.034 -999 -999 -999 -999 -999
2008-06-25 06:36:29 51°15.019 2°49.008 -999 -999 -999 -999 -999
2008-06-25 06:36:34 51°15.02 2°48.981 -999 -999 -999 -999 -999
2008-06-25 06:36:39 51°15.022 2°48.955 -999 -999 -999 -999 -999
2008-06-25 06:36:44 51°15.024 2°48.929 -999 -999 -999 -999 -999
2008-06-25 06:36:49 51°15.025 2°48.902 -999 -999 -999 -999 -999
2008-06-25 06:36:54 51°15.027 2°48.876 -999 -999 -999 -999 -999
2008-06-25 06:36:59 51°15.028 2°48.85 -999 -999 -999 -999 -999
2008-06-25 06:37:04 51°15.029 2°48.825 -999 -999 -999 -999 -999
2008-06-25 06:37:09 51°15.03 2°48.798 -999 -999 -999 -999 -999
2008-06-25 06:37:14 51°15.032 2°48.772 -999 -999 -999 -999 -999
2008-06-25 06:37:19 51°15.033 2°48.746 -999 -999 -999 -999 -999
2008-06-25 06:37:24 51°15.035 2°48.72 -999 -999 -999 -999 -999
2008-06-25 06:37:29 51°15.037 2°48.693 -999 -999 -999 -999 -999
2008-06-25 06:37:34 51°15.039 2°48.667 -999 -999 -999 -999 -999
2008-06-25 06:37:39 51°15.04 2°48.641 -999 -999 -999 -999 -999
2008-06-25 06:37:44 51°15.042 2°48.615 -999 -999 -999 -999 -999
2008-06-25 06:37:49 51°15.043 2°48.588 -999 -999 -999 -999 -999
2008-06-25 06:37:54 51°15.045 2°48.562 -999 -999 -999 -999 -999
2008-06-25 06:37:59 51°15.046 2°48.536 -999 -999 -999 -999 -999
2008-06-25 06:38:04 51°15.048 2°48.509 -999 -999 -999 -999 -999
2008-06-25 06:38:09 51°15.05 2°48.483 -999 -999 -999 -999 -999
2008-06-25 06:38:14 51°15.052 2°48.456 -999 -999 -999 -999 -999
2008-06-25 06:38:19 51°15.054 2°48.43 -999 -999 -999 -999 -999
2008-06-25 06:38:24 51°15.057 2°48.403 -999 -999 -999 -999 -999
2008-06-25 06:38:29 51°15.06 2°48.377 -999 -999 -999 -999 -999
2008-06-25 06:38:34 51°15.063 2°48.351 -999 -999 -999 -999 -999
2008-06-25 06:38:39 51°15.065 2°48.324 -999 -999 -999 -999 -999
2008-06-25 06:38:44 51°15.069 2°48.298 -999 -999 -999 -999 -999
2008-06-25 06:38:49 51°15.071 2°48.272 -999 -999 -999 -999 -999
2008-06-25 06:38:54 51°15.073 2°48.245 -999 -999 -999 -999 -999
2008-06-25 06:38:59 51°15.075 2°48.218 -999 -999 -999 -999 -999
2008-06-25 06:39:04 51°15.076 2°48.192 -999 -999 -999 -999 -999
2008-06-25 06:39:09 51°15.078 2°48.165 -999 -999 -999 -999 -999
2008-06-25 06:39:14 51°15.079 2°48.139 -999 -999 -999 -999 -999
2008-06-25 06:39:19 51°15.08 2°48.112 -999 -999 -999 -999 -999
2008-06-25 06:39:24 51°15.081 2°48.086 -999 -999 -999 -999 -999
2008-06-25 06:39:29 51°15.082 2°48.06 -999 -999 -999 -999 -999
2008-06-25 06:39:34 51°15.082 2°48.033 -999 -999 -999 -999 -999
2008-06-25 06:39:39 51°15.083 2°48.007 -999 -999 -999 -999 -999
2008-06-25 06:39:44 51°15.084 2°47.981 -999 -999 -999 -999 -999
2008-06-25 06:39:49 51°15.085 2°47.955 -999 -999 -999 -999 -999
2008-06-25 06:39:54 51°15.087 2°47.928 -999 -999 -999 -999 -999
2008-06-25 06:39:59 51°15.089 2°47.902 -999 -999 -999 -999 -999
2008-06-25 06:40:04 51°15.092 2°47.876 -999 -999 -999 -999 -999
2008-06-25 06:40:09 51°15.094 2°47.85 -999 -999 -999 -999 -999
2008-06-25 06:40:14 51°15.096 2°47.824 -999 -999 -999 -999 -999
2008-06-25 06:40:19 51°15.098 2°47.798 -999 -999 -999 -999 -999
2008-06-25 06:40:24 51°15.101 2°47.772 -999 -999 -999 -999 -999
2008-06-25 06:40:29 51°15.103 2°47.746 -999 -999 -999 -999 -999
2008-06-25 06:40:34 51°15.105 2°47.72 -999 -999 -999 -999 -999
2008-06-25 06:40:39 51°15.107 2°47.694 -999 -999 -999 -999 -999
2008-06-25 06:40:44 51°15.109 2°47.667 -999 -999 -999 -999 -999
2008-06-25 06:40:49 51°15.111 2°47.641 -999 -999 -999 -999 -999
2008-06-25 06:40:54 51°15.114 2°47.615 -999 -999 -999 -999 -999
2008-06-25 06:40:59 51°15.116 2°47.589 -999 -999 -999 -999 -999
2008-06-25 06:41:04 51°15.119 2°47.563 -999 -999 -999 -999 -999
2008-06-25 06:41:09 51°15.121 2°47.538 -999 -999 -999 -999 -999
2008-06-25 06:41:14 51°15.123 2°47.512 -999 -999 -999 -999 -999
2008-06-25 06:41:19 51°15.126 2°47.486 -999 -999 -999 -999 -999
2008-06-25 06:41:24 51°15.128 2°47.46 -999 -999 -999 -999 -999
2008-06-25 06:41:29 51°15.13 2°47.433 -999 -999 -999 -999 -999
2008-06-25 06:41:34 51°15.133 2°47.407 -999 -999 -999 -999 -999
2008-06-25 06:41:39 51°15.135 2°47.381 -999 -999 -999 -999 -999
2008-06-25 06:41:44 51°15.137 2°47.355 -999 -999 -999 -999 -999
2008-06-25 06:41:49 51°15.139 2°47.329 -999 -999 -999 -999 -999
2008-06-25 06:41:54 51°15.142 2°47.303 -999 -999 -999 -999 -999
2008-06-25 06:41:59 51°15.144 2°47.277 -999 -999 -999 -999 -999
2008-06-25 06:42:04 51°15.146 2°47.25 -999 -999 -999 -999 -999
2008-06-25 06:42:09 51°15.148 2°47.224 -999 -999 -999 -999 -999
2008-06-25 06:42:14 51°15.15 2°47.198 -999 -999 -999 -999 -999
2008-06-25 06:42:19 51°15.152 2°47.172 -999 -999 -999 -999 -999
2008-06-25 06:42:24 51°15.154 2°47.145 -999 -999 -999 -999 -999
2008-06-25 06:42:29 51°15.156 2°47.119 -999 -999 -999 -999 -999
2008-06-25 06:42:34 51°15.157 2°47.092 -999 -999 -999 -999 -999
2008-06-25 06:42:39 51°15.158 2°47.066 -999 -999 -999 -999 -999
2008-06-25 06:42:44 51°15.159 2°47.04 -999 -999 -999 -999 -999
2008-06-25 06:42:49 51°15.16 2°47.014 -999 -999 -999 -999 -999
2008-06-25 06:42:54 51°15.161 2°46.987 -999 -999 -999 -999 -999
2008-06-25 06:42:59 51°15.161 2°46.961 -999 -999 -999 -999 -999
2008-06-25 06:43:04 51°15.163 2°46.935 -999 -999 -999 -999 -999
2008-06-25 06:43:09 51°15.163 2°46.908 -999 -999 -999 -999 -999
2008-06-25 06:43:14 51°15.165 2°46.882 -999 -999 -999 -999 -999
2008-06-25 06:43:19 51°15.166 2°46.855 -999 -999 -999 -999 -999
2008-06-25 06:43:24 51°15.168 2°46.829 -999 -999 -999 -999 -999
2008-06-25 06:43:29 51°15.168 2°46.802 -999 -999 -999 -999 -999
2008-06-25 06:43:34 51°15.17 2°46.775 -999 -999 -999 -999 -999
2008-06-25 06:43:39 51°15.171 2°46.749 -999 -999 -999 -999 -999
2008-06-25 06:43:44 51°15.172 2°46.722 -999 -999 -999 -999 -999
2008-06-25 06:43:49 51°15.173 2°46.696 -999 -999 -999 -999 -999
2008-06-25 06:43:54 51°15.174 2°46.669 -999 -999 -999 -999 -999
2008-06-25 06:43:59 51°15.175 2°46.643 -999 -999 -999 -999 -999
2008-06-25 06:44:04 51°15.176 2°46.617 -999 -999 -999 -999 -999
2008-06-25 06:44:09 51°15.178 2°46.59 -999 -999 -999 -999 -999
2008-06-25 06:44:14 51°15.179 2°46.563 -999 -999 -999 -999 -999
2008-06-25 06:44:19 51°15.18 2°46.537 -999 -999 -999 -999 -999
2008-06-25 06:44:24 51°15.182 2°46.511 -999 -999 -999 -999 -999
2008-06-25 06:44:29 51°15.183 2°46.484 -999 -999 -999 -999 -999
2008-06-25 06:44:34 51°15.184 2°46.457 -999 -999 -999 -999 -999
2008-06-25 06:44:39 51°15.185 2°46.431 -999 -999 -999 -999 -999
2008-06-25 06:44:44 51°15.187 2°46.404 -999 -999 -999 -999 -999
2008-06-25 06:44:49 51°15.188 2°46.378 -999 -999 -999 -999 -999
2008-06-25 06:44:54 51°15.19 2°46.351 -999 -999 -999 -999 -999
2008-06-25 06:44:59 51°15.191 2°46.324 -999 -999 -999 -999 -999
2008-06-25 06:45:04 51°15.193 2°46.298 -999 -999 -999 -999 -999
2008-06-25 06:45:09 51°15.194 2°46.271 -999 -999 -999 -999 -999
2008-06-25 06:45:14 51°15.196 2°46.245 -999 -999 -999 -999 -999
2008-06-25 06:45:19 51°15.197 2°46.218 -999 -999 -999 -999 -999
2008-06-25 06:45:24 51°15.199 2°46.192 -999 -999 -999 -999 -999
2008-06-25 06:45:29 51°15.201 2°46.165 -999 -999 -999 -999 -999
2008-06-25 06:45:34 51°15.204 2°46.139 -999 -999 -999 -999 -999
2008-06-25 06:45:39 51°15.206 2°46.112 -999 -999 -999 -999 -999
2008-06-25 06:45:44 51°15.208 2°46.086 -999 -999 -999 -999 -999
2008-06-25 06:45:49 51°15.211 2°46.059 -999 -999 -999 -999 -999
2008-06-25 06:45:54 51°15.213 2°46.033 -999 -999 -999 -999 -999
2008-06-25 06:45:59 51°15.216 2°46.007 -999 -999 -999 -999 -999
2008-06-25 06:46:04 51°15.218 2°45.98 -999 -999 -999 -999 -999
2008-06-25 06:46:09 51°15.221 2°45.954 -999 -999 -999 -999 -999
2008-06-25 06:46:14 51°15.223 2°45.928 -999 -999 -999 -999 -999
2008-06-25 06:46:19 51°15.225 2°45.901 -999 -999 -999 -999 -999
2008-06-25 06:46:24 51°15.227 2°45.875 -999 -999 -999 -999 -999
2008-06-25 06:46:29 51°15.229 2°45.848 -999 -999 -999 -999 -999
2008-06-25 06:46:34 51°15.231 2°45.822 -999 -999 -999 -999 -999
2008-06-25 06:46:39 51°15.234 2°45.795 -999 -999 -999 -999 -999
2008-06-25 06:46:44 51°15.235 2°45.769 -999 -999 -999 -999 -999
2008-06-25 06:46:49 51°15.237 2°45.743 -999 -999 -999 -999 -999
2008-06-25 06:46:54 51°15.239 2°45.716 -999 -999 -999 -999 -999
2008-06-25 06:46:59 51°15.24 2°45.69 -999 -999 -999 -999 -999
2008-06-25 06:47:04 51°15.242 2°45.664 -999 -999 -999 -999 -999
2008-06-25 06:47:09 51°15.243 2°45.637 -999 -999 -999 -999 -999
2008-06-25 06:47:14 51°15.245 2°45.611 -999 -999 -999 -999 -999
2008-06-25 06:47:19 51°15.247 2°45.584 -999 -999 -999 -999 -999
2008-06-25 06:47:24 51°15.249 2°45.558 -999 -999 -999 -999 -999
2008-06-25 06:47:29 51°15.251 2°45.531 -999 -999 -999 -999 -999
2008-06-25 06:47:34 51°15.253 2°45.505 -999 -999 -999 -999 -999
2008-06-25 06:47:39 51°15.255 2°45.479 -999 -999 -999 -999 -999
2008-06-25 06:47:44 51°15.258 2°45.453 -999 -999 -999 -999 -999
2008-06-25 06:47:49 51°15.259 2°45.427 -999 -999 -999 -999 -999
2008-06-25 06:47:54 51°15.262 2°45.401 -999 -999 -999 -999 -999
2008-06-25 06:47:59 51°15.264 2°45.374 -999 -999 -999 -999 -999
2008-06-25 06:48:04 51°15.266 2°45.348 -999 -999 -999 -999 -999
2008-06-25 06:48:09 51°15.269 2°45.322 -999 -999 -999 -999 -999
2008-06-25 06:48:14 51°15.27 2°45.296 -999 -999 -999 -999 -999
2008-06-25 06:48:19 51°15.272 2°45.269 -999 -999 -999 -999 -999
2008-06-25 06:48:24 51°15.274 2°45.243 -999 -999 -999 -999 -999
2008-06-25 06:48:29 51°15.277 2°45.217 -999 -999 -999 -999 -999
2008-06-25 06:48:34 51°15.279 2°45.191 -999 -999 -999 -999 -999
2008-06-25 06:48:39 51°15.28 2°45.164 -999 -999 -999 -999 -999
2008-06-25 06:48:44 51°15.282 2°45.138 -999 -999 -999 -999 -999
2008-06-25 06:48:49 51°15.283 2°45.112 -999 -999 -999 -999 -999
2008-06-25 06:48:54 51°15.285 2°45.086 -999 -999 -999 -999 -999
2008-06-25 06:48:59 51°15.286 2°45.059 -999 -999 -999 -999 -999
2008-06-25 06:49:04 51°15.288 2°45.033 -999 -999 -999 -999 -999
2008-06-25 06:49:09 51°15.288 2°45.007 -999 -999 -999 -999 -999
2008-06-25 06:49:14 51°15.29 2°44.98 -999 -999 -999 -999 -999
2008-06-25 06:49:19 51°15.291 2°44.954 -999 -999 -999 -999 -999
2008-06-25 06:49:24 51°15.292 2°44.928 -999 -999 -999 -999 -999
2008-06-25 06:49:29 51°15.293 2°44.901 -999 -999 -999 -999 -999
2008-06-25 06:49:34 51°15.295 2°44.875 -999 -999 -999 -999 -999
2008-06-25 06:49:39 51°15.296 2°44.849 -999 -999 -999 -999 -999
2008-06-25 06:49:44 51°15.298 2°44.823 -999 -999 -999 -999 -999
2008-06-25 06:49:49 51°15.3 2°44.797 -999 -999 -999 -999 -999
2008-06-25 06:49:54 51°15.302 2°44.771 -999 -999 -999 -999 -999
2008-06-25 06:49:59 51°15.305 2°44.744 -999 -999 -999 -999 -999
2008-06-25 06:50:04 51°15.307 2°44.718 -999 -999 -999 -999 -999
2008-06-25 06:50:09 51°15.309 2°44.692 -999 -999 -999 -999 -999
2008-06-25 06:50:14 51°15.311 2°44.665 -999 -999 -999 -999 -999
2008-06-25 06:50:19 51°15.314 2°44.639 -999 -999 -999 -999 -999
2008-06-25 06:50:24 51°15.316 2°44.613 -999 -999 -999 -999 -999
2008-06-25 06:50:29 51°15.318 2°44.587 -999 -999 -999 -999 -999
2008-06-25 06:50:34 51°15.321 2°44.561 -999 -999 -999 -999 -999
2008-06-25 06:50:39 51°15.323 2°44.534 -999 -999 -999 -999 -999
2008-06-25 06:50:44 51°15.325 2°44.508 -999 -999 -999 -999 -999
2008-06-25 06:50:49 51°15.326 2°44.482 -999 -999 -999 -999 -999
2008-06-25 06:50:54 51°15.328 2°44.456 -999 -999 -999 -999 -999
2008-06-25 06:50:59 51°15.33 2°44.43 -999 -999 -999 -999 -999
2008-06-25 06:51:04 51°15.331 2°44.403 -999 -999 -999 -999 -999
2008-06-25 06:51:09 51°15.333 2°44.378 -999 -999 -999 -999 -999
2008-06-25 06:51:14 51°15.334 2°44.351 -999 -999 -999 -999 -999
2008-06-25 06:51:19 51°15.336 2°44.325 -999 -999 -999 -999 -999
2008-06-25 06:51:24 51°15.338 2°44.3 -999 -999 -999 -999 -999
2008-06-25 06:51:29 51°15.339 2°44.273 -999 -999 -999 -999 -999
2008-06-25 06:51:34 51°15.341 2°44.247 -999 -999 -999 -999 -999
2008-06-25 06:51:39 51°15.343 2°44.221 -999 -999 -999 -999 -999
2008-06-25 06:51:44 51°15.345 2°44.195 -999 -999 -999 -999 -999
2008-06-25 06:51:49 51°15.348 2°44.169 -999 -999 -999 -999 -999
2008-06-25 06:51:54 51°15.35 2°44.143 -999 -999 -999 -999 -999
2008-06-25 06:51:59 51°15.352 2°44.117 -999 -999 -999 -999 -999
2008-06-25 06:52:04 51°15.354 2°44.091 -999 -999 -999 -999 -999
2008-06-25 06:52:09 51°15.357 2°44.065 -999 -999 -999 -999 -999
2008-06-25 06:52:14 51°15.359 2°44.039 -999 -999 -999 -999 -999
2008-06-25 06:52:19 51°15.362 2°44.013 -999 -999 -999 -999 -999
2008-06-25 06:52:24 51°15.364 2°43.987 -999 -999 -999 -999 -999
2008-06-25 06:52:29 51°15.367 2°43.961 -999 -999 -999 -999 -999
2008-06-25 06:52:34 51°15.369 2°43.935 -999 -999 -999 -999 -999
2008-06-25 06:52:39 51°15.371 2°43.91 -999 -999 -999 -999 -999
2008-06-25 06:52:44 51°15.373 2°43.884 -999 -999 -999 -999 -999
2008-06-25 06:52:49 51°15.375 2°43.857 -999 -999 -999 -999 -999
2008-06-25 06:52:54 51°15.377 2°43.831 -999 -999 -999 -999 -999
2008-06-25 06:52:59 51°15.378 2°43.805 -999 -999 -999 -999 -999
2008-06-25 06:53:04 51°15.38 2°43.78 -999 -999 -999 -999 -999
2008-06-25 06:53:09 51°15.382 2°43.754 -999 -999 -999 -999 -999
2008-06-25 06:53:14 51°15.383 2°43.727 -999 -999 -999 -999 -999
2008-06-25 06:53:19 51°15.385 2°43.702 -999 -999 -999 -999 -999
2008-06-25 06:53:24 51°15.386 2°43.676 -999 -999 -999 -999 -999
2008-06-25 06:53:29 51°15.389 2°43.65 -999 -999 -999 -999 -999
2008-06-25 06:53:34 51°15.39 2°43.623 -999 -999 -999 -999 -999
2008-06-25 06:53:39 51°15.392 2°43.598 -999 -999 -999 -999 -999
2008-06-25 06:53:44 51°15.394 2°43.572 -999 -999 -999 -999 -999
2008-06-25 06:53:49 51°15.396 2°43.546 -999 -999 -999 -999 -999
2008-06-25 06:53:54 51°15.397 2°43.52 -999 -999 -999 -999 -999
2008-06-25 06:53:59 51°15.399 2°43.494 -999 -999 -999 -999 -999
2008-06-25 06:54:04 51°15.4 2°43.468 -999 -999 -999 -999 -999
2008-06-25 06:54:09 51°15.402 2°43.442 -999 -999 -999 -999 -999
2008-06-25 06:54:14 51°15.404 2°43.416 -999 -999 -999 -999 -999
2008-06-25 06:54:19 51°15.406 2°43.39 -999 -999 -999 -999 -999
2008-06-25 06:54:24 51°15.408 2°43.363 -999 -999 -999 -999 -999
2008-06-25 06:54:29 51°15.411 2°43.337 -999 -999 -999 -999 -999
2008-06-25 06:54:34 51°15.413 2°43.311 -999 -999 -999 -999 -999
2008-06-25 06:54:39 51°15.415 2°43.285 -999 -999 -999 -999 -999
2008-06-25 06:54:44 51°15.418 2°43.259 -999 -999 -999 -999 -999
2008-06-25 06:54:49 51°15.42 2°43.233 -999 -999 -999 -999 -999
2008-06-25 06:54:54 51°15.422 2°43.207 -999 -999 -999 -999 -999
2008-06-25 06:54:59 51°15.425 2°43.181 -999 -999 -999 -999 -999
2008-06-25 06:55:04 51°15.427 2°43.154 -999 -999 -999 -999 -999
2008-06-25 06:55:09 51°15.429 2°43.128 -999 -999 -999 -999 -999
2008-06-25 06:55:14 51°15.432 2°43.102 -999 -999 -999 -999 -999
2008-06-25 06:55:19 51°15.433 2°43.076 -999 -999 -999 -999 -999
2008-06-25 06:55:24 51°15.435 2°43.049 -999 -999 -999 -999 -999
2008-06-25 06:55:29 51°15.436 2°43.023 -999 -999 -999 -999 -999
2008-06-25 06:55:34 51°15.438 2°42.996 -999 -999 -999 -999 -999
2008-06-25 06:55:39 51°15.439 2°42.969 -999 -999 -999 -999 -999
2008-06-25 06:55:44 51°15.441 2°42.942 -999 -999 -999 -999 -999
2008-06-25 06:55:49 51°15.442 2°42.916 -999 -999 -999 -999 -999
2008-06-25 06:55:54 51°15.443 2°42.89 -999 -999 -999 -999 -999
2008-06-25 06:55:59 51°15.445 2°42.863 -999 -999 -999 -999 -999
2008-06-25 06:56:04 51°15.447 2°42.837 -999 -999 -999 -999 -999
2008-06-25 06:56:09 51°15.447 2°42.81 -999 -999 -999 -999 -999
2008-06-25 06:56:14 51°15.45 2°42.783 -999 -999 -999 -999 -999
2008-06-25 06:56:19 51°15.45 2°42.757 -999 -999 -999 -999 -999
2008-06-25 06:56:24 51°15.453 2°42.731 -999 -999 -999 -999 -999
2008-06-25 06:56:29 51°15.454 2°42.704 -999 -999 -999 -999 -999
2008-06-25 06:56:34 51°15.457 2°42.677 -999 -999 -999 -999 -999
2008-06-25 06:56:39 51°15.459 2°42.651 -999 -999 -999 -999 -999
2008-06-25 06:56:44 51°15.461 2°42.625 -999 -999 -999 -999 -999
2008-06-25 06:56:49 51°15.463 2°42.598 -999 -999 -999 -999 -999
2008-06-25 06:56:54 51°15.465 2°42.572 -999 -999 -999 -999 -999
2008-06-25 06:56:59 51°15.467 2°42.546 -999 -999 -999 -999 -999
2008-06-25 06:57:04 51°15.468 2°42.519 -999 -999 -999 -999 -999
2008-06-25 06:57:09 51°15.47 2°42.493 -999 -999 -999 -999 -999
2008-06-25 06:57:14 51°15.471 2°42.467 -999 -999 -999 -999 -999
2008-06-25 06:57:19 51°15.473 2°42.44 -999 -999 -999 -999 -999
2008-06-25 06:57:24 51°15.474 2°42.414 -999 -999 -999 -999 -999
2008-06-25 06:57:29 51°15.476 2°42.388 -999 -999 -999 -999 -999
2008-06-25 06:57:34 51°15.477 2°42.362 -999 -999 -999 -999 -999
2008-06-25 06:57:39 51°15.48 2°42.335 -999 -999 -999 -999 -999
2008-06-25 06:57:44 51°15.481 2°42.309 -999 -999 -999 -999 -999
2008-06-25 06:57:49 51°15.483 2°42.282 -999 -999 -999 -999 -999
2008-06-25 06:57:54 51°15.485 2°42.256 -999 -999 -999 -999 -999
2008-06-25 06:57:59 51°15.488 2°42.23 -999 -999 -999 -999 -999
2008-06-25 06:58:04 51°15.49 2°42.203 -999 -999 -999 -999 -999
2008-06-25 06:58:09 51°15.493 2°42.177 -999 -999 -999 -999 -999
2008-06-25 06:58:14 51°15.495 2°42.151 -999 -999 -999 -999 -999
2008-06-25 06:58:19 51°15.498 2°42.124 -999 -999 -999 -999 -999
2008-06-25 06:58:24 51°15.5 2°42.098 -999 -999 -999 -999 -999
2008-06-25 06:58:29 51°15.502 2°42.072 -999 -999 -999 -999 -999
2008-06-25 06:58:34 51°15.503 2°42.045 -999 -999 -999 -999 -999
2008-06-25 06:58:39 51°15.506 2°42.02 -999 -999 -999 -999 -999
2008-06-25 06:58:44 51°15.507 2°41.994 -999 -999 -999 -999 -999
2008-06-25 06:58:49 51°15.509 2°41.968 -999 -999 -999 -999 -999
2008-06-25 06:58:54 51°15.51 2°41.942 -999 -999 -999 -999 -999
2008-06-25 06:58:59 51°15.511 2°41.915 -999 -999 -999 -999 -999
2008-06-25 06:59:04 51°15.513 2°41.889 -999 -999 -999 -999 -999
2008-06-25 06:59:09 51°15.514 2°41.863 -999 -999 -999 -999 -999
2008-06-25 06:59:14 51°15.515 2°41.837 -999 -999 -999 -999 -999
2008-06-25 06:59:19 51°15.517 2°41.811 -999 -999 -999 -999 -999
2008-06-25 06:59:24 51°15.52 2°41.785 -999 -999 -999 -999 -999
2008-06-25 06:59:29 51°15.524 2°41.759 -999 -999 -999 -999 -999
2008-06-25 06:59:34 51°15.528 2°41.733 -999 -999 -999 -999 -999
2008-06-25 06:59:39 51°15.534 2°41.707 -999 -999 -999 -999 -999
2008-06-25 06:59:44 51°15.539 2°41.681 -999 -999 -999 -999 -999
2008-06-25 06:59:49 51°15.546 2°41.657 -999 -999 -999 -999 -999
2008-06-25 06:59:54 51°15.553 2°41.632 -999 -999 -999 -999 -999
2008-06-25 06:59:59 51°15.562 2°41.609 -999 -999 -999 -999 -999
2008-06-25 07:00:04 51°15.57 2°41.585 -999 -999 -999 -999 -999
2008-06-25 07:00:09 51°15.58 2°41.562 -999 -999 -999 -999 -999
2008-06-25 07:00:14 51°15.589 2°41.539 -999 -999 -999 -999 -999
2008-06-25 07:00:19 51°15.598 2°41.517 -999 -999 -999 -999 -999
2008-06-25 07:00:24 51°15.608 2°41.494 -999 -999 -999 -999 -999
2008-06-25 07:00:29 51°15.618 2°41.472 -999 -999 -999 -999 -999
2008-06-25 07:00:34 51°15.628 2°41.45 -999 -999 -999 -999 -999
2008-06-25 07:00:39 51°15.638 2°41.427 -999 -999 -999 -999 -999
2008-06-25 07:00:44 51°15.648 2°41.405 -999 -999 -999 -999 -999
2008-06-25 07:00:49 51°15.657 2°41.381 -999 -999 -999 -999 -999
2008-06-25 07:00:54 51°15.667 2°41.359 -999 -999 -999 -999 -999
2008-06-25 07:00:59 51°15.676 2°41.336 -999 -999 -999 -999 -999
2008-06-25 07:01:04 51°15.686 2°41.312 -999 -999 -999 -999 -999
2008-06-25 07:01:09 51°15.695 2°41.289 -999 -999 -999 -999 -999
2008-06-25 07:01:14 51°15.704 2°41.266 -999 -999 -999 -999 -999
2008-06-25 07:01:19 51°15.714 2°41.243 -999 -999 -999 -999 -999
2008-06-25 07:01:24 51°15.723 2°41.219 -999 -999 -999 -999 -999
2008-06-25 07:01:29 51°15.732 2°41.196 -999 -999 -999 -999 -999
2008-06-25 07:01:34 51°15.741 2°41.172 -999 -999 -999 -999 -999
2008-06-25 07:01:39 51°15.75 2°41.149 -999 -999 -999 -999 -999
2008-06-25 07:01:44 51°15.759 2°41.126 -999 -999 -999 -999 -999
2008-06-25 07:01:49 51°15.769 2°41.102 -999 -999 -999 -999 -999
2008-06-25 07:01:54 51°15.777 2°41.079 -999 -999 -999 -999 -999
2008-06-25 07:01:59 51°15.786 2°41.055 -999 -999 -999 -999 -999
2008-06-25 07:02:04 51°15.795 2°41.031 -999 -999 -999 -999 -999
2008-06-25 07:02:09 51°15.804 2°41.008 -999 -999 -999 -999 -999
2008-06-25 07:02:14 51°15.813 2°40.984 -999 -999 -999 -999 -999
2008-06-25 07:02:19 51°15.823 2°40.961 -999 -999 -999 -999 -999
2008-06-25 07:02:24 51°15.832 2°40.937 -999 -999 -999 -999 -999
2008-06-25 07:02:29 51°15.841 2°40.914 -999 -999 -999 -999 -999
2008-06-25 07:02:34 51°15.85 2°40.89 -999 -999 -999 -999 -999
2008-06-25 07:02:39 51°15.858 2°40.866 -999 -999 -999 -999 -999
2008-06-25 07:02:44 51°15.867 2°40.842 -999 -999 -999 -999 -999
2008-06-25 07:02:49 51°15.875 2°40.818 -999 -999 -999 -999 -999
2008-06-25 07:02:54 51°15.883 2°40.794 -999 -999 -999 -999 -999
2008-06-25 07:02:59 51°15.892 2°40.77 -999 -999 -999 -999 -999
2008-06-25 07:03:04 51°15.901 2°40.746 -999 -999 -999 -999 -999
2008-06-25 07:03:09 51°15.909 2°40.723 -999 -999 -999 -999 -999
2008-06-25 07:03:14 51°15.918 2°40.699 -999 -999 -999 -999 -999
2008-06-25 07:03:19 51°15.927 2°40.675 -999 -999 -999 -999 -999
2008-06-25 07:03:24 51°15.936 2°40.651 -999 -999 -999 -999 -999
2008-06-25 07:03:29 51°15.944 2°40.628 -999 -999 -999 -999 -999
2008-06-25 07:03:34 51°15.953 2°40.604 -999 -999 -999 -999 -999
2008-06-25 07:03:39 51°15.961 2°40.58 -999 -999 -999 -999 -999
2008-06-25 07:03:44 51°15.97 2°40.557 -999 -999 -999 -999 -999
2008-06-25 07:03:49 51°15.977 2°40.533 -999 -999 -999 -999 -999
2008-06-25 07:03:54 51°15.985 2°40.509 -999 -999 -999 -999 -999
2008-06-25 07:03:59 51°15.993 2°40.485 -999 -999 -999 -999 -999
2008-06-25 07:04:04 51°16.001 2°40.46 -999 -999 -999 -999 -999
2008-06-25 07:04:09 51°16.009 2°40.436 -999 -999 -999 -999 -999
2008-06-25 07:04:14 51°16.016 2°40.412 -999 -999 -999 -999 -999
2008-06-25 07:04:19 51°16.024 2°40.388 -999 -999 -999 -999 -999
2008-06-25 07:04:24 51°16.031 2°40.364 -999 -999 -999 -999 -999
2008-06-25 07:04:29 51°16.039 2°40.34 -999 -999 -999 -999 -999
2008-06-25 07:04:34 51°16.047 2°40.316 -999 -999 -999 -999 -999
2008-06-25 07:04:39 51°16.055 2°40.292 -999 -999 -999 -999 -999
2008-06-25 07:04:44 51°16.062 2°40.267 -999 -999 -999 -999 -999
2008-06-25 07:04:49 51°16.071 2°40.244 -999 -999 -999 -999 -999
2008-06-25 07:04:54 51°16.079 2°40.22 -999 -999 -999 -999 -999
2008-06-25 07:04:59 51°16.087 2°40.196 -999 -999 -999 -999 -999
2008-06-25 07:05:04 51°16.095 2°40.172 -999 -999 -999 -999 -999
2008-06-25 07:05:09 51°16.104 2°40.148 -999 -999 -999 -999 -999
2008-06-25 07:05:14 51°16.112 2°40.124 -999 -999 -999 -999 -999
2008-06-25 07:05:19 51°16.12 2°40.1 -999 -999 -999 -999 -999
2008-06-25 07:05:24 51°16.128 2°40.076 -999 -999 -999 -999 -999
2008-06-25 07:05:29 51°16.137 2°40.053 -999 -999 -999 -999 -999
2008-06-25 07:05:34 51°16.145 2°40.029 -999 -999 -999 -999 -999
2008-06-25 07:05:39 51°16.153 2°40.006 -999 -999 -999 -999 -999
2008-06-25 07:05:44 51°16.161 2°39.982 -999 -999 -999 -999 -999
2008-06-25 07:05:49 51°16.169 2°39.958 -999 -999 -999 -999 -999
2008-06-25 07:05:54 51°16.177 2°39.934 -999 -999 -999 -999 -999
2008-06-25 07:05:59 51°16.185 2°39.91 -999 -999 -999 -999 -999
2008-06-25 07:06:04 51°16.193 2°39.885 -999 -999 -999 -999 -999
2008-06-25 07:06:09 51°16.2 2°39.861 -999 -999 -999 -999 -999
2008-06-25 07:06:14 51°16.208 2°39.837 -999 -999 -999 -999 -999
2008-06-25 07:06:19 51°16.215 2°39.812 -999 -999 -999 -999 -999
2008-06-25 07:06:24 51°16.222 2°39.788 -999 -999 -999 -999 -999
2008-06-25 07:06:29 51°16.229 2°39.764 -999 -999 -999 -999 -999
2008-06-25 07:06:34 51°16.236 2°39.739 -999 -999 -999 -999 -999
2008-06-25 07:06:39 51°16.244 2°39.714 -999 -999 -999 -999 -999
2008-06-25 07:06:44 51°16.251 2°39.689 -999 -999 -999 -999 -999
2008-06-25 07:06:49 51°16.259 2°39.665 -999 -999 -999 -999 -999
2008-06-25 07:06:54 51°16.265 2°39.64 -999 -999 -999 -999 -999
2008-06-25 07:06:59 51°16.273 2°39.616 -999 -999 -999 -999 -999
2008-06-25 07:07:04 51°16.28 2°39.591 -999 -999 -999 -999 -999
2008-06-25 07:07:09 51°16.287 2°39.567 -999 -999 -999 -999 -999
2008-06-25 07:07:14 51°16.295 2°39.542 -999 -999 -999 -999 -999
2008-06-25 07:07:19 51°16.303 2°39.519 -999 -999 -999 -999 -999
2008-06-25 07:07:24 51°16.31 2°39.495 -999 -999 -999 -999 -999
2008-06-25 07:07:29 51°16.318 2°39.471 -999 -999 -999 -999 -999
2008-06-25 07:07:34 51°16.327 2°39.448 -999 -999 -999 -999 -999
2008-06-25 07:07:39 51°16.335 2°39.424 -999 -999 -999 -999 -999
2008-06-25 07:07:44 51°16.344 2°39.4 -999 -999 -999 -999 -999
2008-06-25 07:07:49 51°16.353 2°39.376 -999 -999 -999 -999 -999
2008-06-25 07:07:54 51°16.362 2°39.353 -999 -999 -999 -999 -999
2008-06-25 07:07:59 51°16.37 2°39.329 -999 -999 -999 -999 -999
2008-06-25 07:08:04 51°16.378 2°39.305 -999 -999 -999 -999 -999
2008-06-25 07:08:09 51°16.386 2°39.281 -999 -999 -999 -999 -999
2008-06-25 07:08:14 51°16.395 2°39.258 -999 -999 -999 -999 -999
2008-06-25 07:08:19 51°16.403 2°39.234 -999 -999 -999 -999 -999
2008-06-25 07:08:24 51°16.411 2°39.21 -999 -999 -999 -999 -999
2008-06-25 07:08:29 51°16.419 2°39.186 -999 -999 -999 -999 -999
2008-06-25 07:08:34 51°16.427 2°39.162 -999 -999 -999 -999 -999
2008-06-25 07:08:39 51°16.435 2°39.139 -999 -999 -999 -999 -999
2008-06-25 07:08:44 51°16.443 2°39.115 -999 -999 -999 -999 -999
2008-06-25 07:08:49 51°16.452 2°39.092 -999 -999 -999 -999 -999
2008-06-25 07:08:54 51°16.461 2°39.069 -999 -999 -999 -999 -999
2008-06-25 07:08:59 51°16.47 2°39.046 -999 -999 -999 -999 -999
2008-06-25 07:09:04 51°16.479 2°39.023 -999 -999 -999 -999 -999
2008-06-25 07:09:09 51°16.488 2°39 -999 -999 -999 -999 -999
2008-06-25 07:09:14 51°16.497 2°38.977 -999 -999 -999 -999 -999
2008-06-25 07:09:19 51°16.507 2°38.954 -999 -999 -999 -999 -999
2008-06-25 07:09:24 51°16.515 2°38.93 -999 -999 -999 -999 -999
2008-06-25 07:09:29 51°16.524 2°38.907 -999 -999 -999 -999 -999
2008-06-25 07:09:34 51°16.532 2°38.884 -999 -999 -999 -999 -999
2008-06-25 07:09:39 51°16.542 2°38.861 -999 -999 -999 -999 -999
2008-06-25 07:09:44 51°16.55 2°38.836 -999 -999 -999 -999 -999
2008-06-25 07:09:49 51°16.558 2°38.813 -999 -999 -999 -999 -999
2008-06-25 07:09:54 51°16.567 2°38.789 -999 -999 -999 -999 -999
2008-06-25 07:09:59 51°16.575 2°38.765 -999 -999 -999 -999 -999
2008-06-25 07:10:04 51°16.583 2°38.742 -999 -999 -999 -999 -999
2008-06-25 07:10:09 51°16.59 2°38.718 -999 -999 -999 -999 -999
2008-06-25 07:10:14 51°16.598 2°38.695 -999 -999 -999 -999 -999
2008-06-25 07:10:19 51°16.606 2°38.67 -999 -999 -999 -999 -999
2008-06-25 07:10:24 51°16.615 2°38.646 -999 -999 -999 -999 -999
2008-06-25 07:10:29 51°16.623 2°38.622 -999 -999 -999 -999 -999
2008-06-25 07:10:34 51°16.632 2°38.598 -999 -999 -999 -999 -999
2008-06-25 07:10:39 51°16.639 2°38.574 -999 -999 -999 -999 -999
2008-06-25 07:10:44 51°16.648 2°38.55 -999 -999 -999 -999 -999
2008-06-25 07:10:49 51°16.656 2°38.526 -999 -999 -999 -999 -999
2008-06-25 07:10:54 51°16.664 2°38.503 -999 -999 -999 -999 -999
2008-06-25 07:10:59 51°16.672 2°38.479 -999 -999 -999 -999 -999
2008-06-25 07:11:04 51°16.68 2°38.454 -999 -999 -999 -999 -999
2008-06-25 07:11:09 51°16.688 2°38.43 -999 -999 -999 -999 -999
2008-06-25 07:11:14 51°16.698 2°38.409 -999 -999 -999 -999 -999
2008-06-25 07:11:19 51°16.707 2°38.385 -999 -999 -999 -999 -999
2008-06-25 07:11:24 51°16.715 2°38.362 -999 -999 -999 -999 -999
2008-06-25 07:11:29 51°16.724 2°38.339 -999 -999 -999 -999 -999
2008-06-25 07:11:34 51°16.733 2°38.315 -999 -999 -999 -999 -999
2008-06-25 07:11:39 51°16.743 2°38.292 -999 -999 -999 -999 -999
2008-06-25 07:11:44 51°16.753 2°38.268 -999 -999 -999 -999 -999
2008-06-25 07:11:49 51°16.762 2°38.244 -999 -999 -999 -999 -999
2008-06-25 07:11:54 51°16.772 2°38.22 -999 -999 -999 -999 -999
2008-06-25 07:11:59 51°16.781 2°38.197 -999 -999 -999 -999 -999
2008-06-25 07:12:04 51°16.79 2°38.173 -999 -999 -999 -999 -999
2008-06-25 07:12:09 51°16.799 2°38.149 -999 -999 -999 -999 -999
2008-06-25 07:12:14 51°16.808 2°38.126 -999 -999 -999 -999 -999
2008-06-25 07:12:19 51°16.817 2°38.102 -999 -999 -999 -999 -999
2008-06-25 07:12:24 51°16.825 2°38.078 -999 -999 -999 -999 -999
2008-06-25 07:12:29 51°16.833 2°38.054 -999 -999 -999 -999 -999
2008-06-25 07:12:34 51°16.842 2°38.03 -999 -999 -999 -999 -999
2008-06-25 07:12:39 51°16.85 2°38.006 -999 -999 -999 -999 -999
2008-06-25 07:12:44 51°16.859 2°37.983 -999 -999 -999 -999 -999
2008-06-25 07:12:49 51°16.868 2°37.959 -999 -999 -999 -999 -999
2008-06-25 07:12:54 51°16.877 2°37.935 -999 -999 -999 -999 -999
2008-06-25 07:12:59 51°16.885 2°37.911 -999 -999 -999 -999 -999
2008-06-25 07:13:04 51°16.894 2°37.889 -999 -999 -999 -999 -999
2008-06-25 07:13:09 51°16.903 2°37.865 -999 -999 -999 -999 -999
2008-06-25 07:13:14 51°16.913 2°37.842 -999 -999 -999 -999 -999
2008-06-25 07:13:19 51°16.922 2°37.818 -999 -999 -999 -999 -999
2008-06-25 07:13:24 51°16.931 2°37.796 -999 -999 -999 -999 -999
2008-06-25 07:13:29 51°16.94 2°37.772 -999 -999 -999 -999 -999
2008-06-25 07:13:34 51°16.949 2°37.75 -999 -999 -999 -999 -999
2008-06-25 07:13:39 51°16.957 2°37.727 -999 -999 -999 -999 -999
2008-06-25 07:13:44 51°16.967 2°37.704 -999 -999 -999 -999 -999
2008-06-25 07:13:49 51°16.975 2°37.68 -999 -999 -999 -999 -999
2008-06-25 07:13:54 51°16.984 2°37.657 -999 -999 -999 -999 -999
2008-06-25 07:13:59 51°16.993 2°37.634 -999 -999 -999 -999 -999
2008-06-25 07:14:04 51°17.002 2°37.611 -999 -999 -999 -999 -999
2008-06-25 07:14:09 51°17.011 2°37.588 -999 -999 -999 -999 -999
2008-06-25 07:14:14 51°17.02 2°37.564 -999 -999 -999 -999 -999
2008-06-25 07:14:19 51°17.029 2°37.542 -999 -999 -999 -999 -999
2008-06-25 07:14:24 51°17.037 2°37.518 -999 -999 -999 -999 -999
2008-06-25 07:14:29 51°17.045 2°37.495 -999 -999 -999 -999 -999
2008-06-25 07:14:34 51°17.054 2°37.471 -999 -999 -999 -999 -999
2008-06-25 07:14:39 51°17.062 2°37.448 -999 -999 -999 -999 -999
2008-06-25 07:14:44 51°17.071 2°37.425 -999 -999 -999 -999 -999
2008-06-25 07:14:49 51°17.08 2°37.402 -999 -999 -999 -999 -999
2008-06-25 07:14:54 51°17.089 2°37.379 -999 -999 -999 -999 -999
2008-06-25 07:14:59 51°17.098 2°37.356 -999 -999 -999 -999 -999
2008-06-25 07:15:04 51°17.106 2°37.333 -999 -999 -999 -999 -999
2008-06-25 07:15:09 51°17.115 2°37.309 -999 -999 -999 -999 -999
2008-06-25 07:15:14 51°17.124 2°37.286 -999 -999 -999 -999 -999
2008-06-25 07:15:19 51°17.133 2°37.263 -999 -999 -999 -999 -999
2008-06-25 07:15:24 51°17.142 2°37.24 -999 -999 -999 -999 -999
2008-06-25 07:15:29 51°17.151 2°37.217 -999 -999 -999 -999 -999
2008-06-25 07:15:34 51°17.161 2°37.194 -999 -999 -999 -999 -999
2008-06-25 07:15:39 51°17.169 2°37.171 -999 -999 -999 -999 -999
2008-06-25 07:15:44 51°17.179 2°37.148 -999 -999 -999 -999 -999
2008-06-25 07:15:49 51°17.187 2°37.124 -999 -999 -999 -999 -999
2008-06-25 07:15:54 51°17.196 2°37.101 -999 -999 -999 -999 -999
2008-06-25 07:15:59 51°17.204 2°37.078 -999 -999 -999 -999 -999
2008-06-25 07:16:04 51°17.213 2°37.054 -999 -999 -999 -999 -999
2008-06-25 07:16:09 51°17.221 2°37.031 -999 -999 -999 -999 -999
2008-06-25 07:16:14 51°17.229 2°37.007 -999 -999 -999 -999 -999
2008-06-25 07:16:19 51°17.237 2°36.983 -999 -999 -999 -999 -999
2008-06-25 07:16:24 51°17.245 2°36.96 -999 -999 -999 -999 -999
2008-06-25 07:16:29 51°17.253 2°36.936 -999 -999 -999 -999 -999
2008-06-25 07:16:34 51°17.262 2°36.913 -999 -999 -999 -999 -999
2008-06-25 07:16:39 51°17.271 2°36.889 -999 -999 -999 -999 -999
2008-06-25 07:16:44 51°17.279 2°36.866 -999 -999 -999 -999 -999
2008-06-25 07:16:49 51°17.288 2°36.842 -999 -999 -999 -999 -999
2008-06-25 07:16:54 51°17.297 2°36.819 -999 -999 -999 -999 -999
2008-06-25 07:16:59 51°17.306 2°36.795 -999 -999 -999 -999 -999
2008-06-25 07:17:04 51°17.315 2°36.772 -999 -999 -999 -999 -999
2008-06-25 07:17:09 51°17.324 2°36.749 -999 -999 -999 -999 -999
2008-06-25 07:17:14 51°17.333 2°36.725 -999 -999 -999 -999 -999
2008-06-25 07:17:19 51°17.342 2°36.702 -999 -999 -999 -999 -999
2008-06-25 07:17:24 51°17.35 2°36.678 -999 -999 -999 -999 -999
2008-06-25 07:17:29 51°17.358 2°36.654 -999 -999 -999 -999 -999
2008-06-25 07:17:34 51°17.366 2°36.63 -999 -999 -999 -999 -999
2008-06-25 07:17:39 51°17.374 2°36.606 -999 -999 -999 -999 -999
2008-06-25 07:17:44 51°17.381 2°36.581 -999 -999 -999 -999 -999
2008-06-25 07:17:49 51°17.389 2°36.557 -999 -999 -999 -999 -999
2008-06-25 07:17:54 51°17.397 2°36.533 -999 -999 -999 -999 -999
2008-06-25 07:17:59 51°17.405 2°36.509 -999 -999 -999 -999 -999
2008-06-25 07:18:04 51°17.412 2°36.484 -999 -999 -999 -999 -999
2008-06-25 07:18:09 51°17.42 2°36.46 -999 -999 -999 -999 -999
2008-06-25 07:18:14 51°17.428 2°36.436 -999 -999 -999 -999 -999
2008-06-25 07:18:19 51°17.435 2°36.411 -999 -999 -999 -999 -999
2008-06-25 07:18:24 51°17.442 2°36.387 -999 -999 -999 -999 -999
2008-06-25 07:18:29 51°17.45 2°36.362 -999 -999 -999 -999 -999
2008-06-25 07:18:34 51°17.457 2°36.338 -999 -999 -999 -999 -999
2008-06-25 07:18:39 51°17.464 2°36.313 -999 -999 -999 -999 -999
2008-06-25 07:18:44 51°17.472 2°36.288 -999 -999 -999 -999 -999
2008-06-25 07:18:49 51°17.479 2°36.264 -999 -999 -999 -999 -999
2008-06-25 07:18:54 51°17.486 2°36.24 -999 -999 -999 -999 -999
2008-06-25 07:18:59 51°17.493 2°36.215 -999 -999 -999 -999 -999
2008-06-25 07:19:04 51°17.501 2°36.191 -999 -999 -999 -999 -999
2008-06-25 07:19:09 51°17.508 2°36.166 -999 -999 -999 -999 -999
2008-06-25 07:19:14 51°17.516 2°36.142 -999 -999 -999 -999 -999
2008-06-25 07:19:19 51°17.523 2°36.117 -999 -999 -999 -999 -999
2008-06-25 07:19:24 51°17.531 2°36.093 -999 -999 -999 -999 -999
2008-06-25 07:19:29 51°17.538 2°36.069 -999 -999 -999 -999 -999
2008-06-25 07:19:34 51°17.546 2°36.044 -999 -999 -999 -999 -999
2008-06-25 07:19:39 51°17.553 2°36.02 -999 -999 -999 -999 -999
2008-06-25 07:19:44 51°17.561 2°35.996 -999 -999 -999 -999 -999
2008-06-25 07:19:49 51°17.569 2°35.972 -999 -999 -999 -999 -999
2008-06-25 07:19:54 51°17.577 2°35.948 -999 -999 -999 -999 -999
2008-06-25 07:19:59 51°17.585 2°35.924 -999 -999 -999 -999 -999
2008-06-25 07:20:04 51°17.593 2°35.9 -999 -999 -999 -999 -999
2008-06-25 07:20:09 51°17.601 2°35.876 -999 -999 -999 -999 -999
2008-06-25 07:20:14 51°17.61 2°35.853 -999 -999 -999 -999 -999
2008-06-25 07:20:19 51°17.618 2°35.829 -999 -999 -999 -999 -999
2008-06-25 07:20:24 51°17.625 2°35.804 -999 -999 -999 -999 -999
2008-06-25 07:20:29 51°17.633 2°35.781 -999 -999 -999 -999 -999
2008-06-25 07:20:34 51°17.641 2°35.756 -999 -999 -999 -999 -999
2008-06-25 07:20:39 51°17.648 2°35.732 -999 -999 -999 -999 -999
2008-06-25 07:20:44 51°17.655 2°35.708 -999 -999 -999 -999 -999
2008-06-25 07:20:49 51°17.663 2°35.684 -999 -999 -999 -999 -999
2008-06-25 07:20:54 51°17.67 2°35.66 -999 -999 -999 -999 -999
2008-06-25 07:20:59 51°17.678 2°35.636 -999 -999 -999 -999 -999
2008-06-25 07:21:04 51°17.685 2°35.611 -999 -999 -999 -999 -999
2008-06-25 07:21:09 51°17.693 2°35.588 -999 -999 -999 -999 -999
2008-06-25 07:21:14 51°17.7 2°35.563 -999 -999 -999 -999 -999
2008-06-25 07:21:19 51°17.707 2°35.539 -999 -999 -999 -999 -999
2008-06-25 07:21:24 51°17.715 2°35.514 -999 -999 -999 -999 -999
2008-06-25 07:21:29 51°17.722 2°35.49 -999 -999 -999 -999 -999
2008-06-25 07:21:34 51°17.73 2°35.466 -999 -999 -999 -999 -999
2008-06-25 07:21:39 51°17.738 2°35.441 -999 -999 -999 -999 -999
2008-06-25 07:21:44 51°17.746 2°35.417 -999 -999 -999 -999 -999
2008-06-25 07:21:49 51°17.754 2°35.393 -999 -999 -999 -999 -999
2008-06-25 07:21:54 51°17.761 2°35.369 -999 -999 -999 -999 -999
2008-06-25 07:21:59 51°17.769 2°35.345 -999 -999 -999 -999 -999
2008-06-25 07:22:04 51°17.777 2°35.321 -999 -999 -999 -999 -999
2008-06-25 07:22:09 51°17.785 2°35.297 -999 -999 -999 -999 -999
2008-06-25 07:22:14 51°17.793 2°35.273 -999 -999 -999 -999 -999
2008-06-25 07:22:19 51°17.8 2°35.25 -999 -999 -999 -999 -999
2008-06-25 07:22:24 51°17.808 2°35.226 -999 -999 -999 -999 -999
2008-06-25 07:22:29 51°17.816 2°35.202 -999 -999 -999 -999 -999
2008-06-25 07:22:34 51°17.823 2°35.178 -999 -999 -999 -999 -999
2008-06-25 07:22:39 51°17.831 2°35.154 -999 -999 -999 -999 -999
2008-06-25 07:22:44 51°17.839 2°35.13 -999 -999 -999 -999 -999
2008-06-25 07:22:49 51°17.847 2°35.106 -999 -999 -999 -999 -999
2008-06-25 07:22:54 51°17.855 2°35.082 -999 -999 -999 -999 -999
2008-06-25 07:22:59 51°17.864 2°35.059 -999 -999 -999 -999 -999
2008-06-25 07:23:04 51°17.872 2°35.035 -999 -999 -999 -999 -999
2008-06-25 07:23:09 51°17.88 2°35.011 -999 -999 -999 -999 -999
2008-06-25 07:23:14 51°17.888 2°34.989 -999 -999 -999 -999 -999
2008-06-25 07:23:19 51°17.895 2°34.965 -999 -999 -999 -999 -999
2008-06-25 07:23:24 51°17.903 2°34.943 -999 -999 -999 -999 -999
2008-06-25 07:23:29 51°17.909 2°34.919 -999 -999 -999 -999 -999
2008-06-25 07:23:34 51°17.915 2°34.896 -999 -999 -999 -999 -999
2008-06-25 07:23:39 51°17.921 2°34.873 -999 -999 -999 -999 -999
2008-06-25 07:23:44 51°17.926 2°34.85 -999 -999 -999 -999 -999
2008-06-25 07:23:49 51°17.931 2°34.827 -999 -999 -999 -999 -999
2008-06-25 07:23:54 51°17.936 2°34.804 -999 -999 -999 -999 -999
2008-06-25 07:23:59 51°17.941 2°34.781 -999 -999 -999 -999 -999
2008-06-25 07:24:04 51°17.945 2°34.757 -999 -999 -999 -999 -999
2008-06-25 07:24:09 51°17.95 2°34.734 -999 -999 -999 -999 -999
2008-06-25 07:24:14 51°17.953 2°34.711 -999 -999 -999 -999 -999
2008-06-25 07:24:19 51°17.955 2°34.687 -999 -999 -999 -999 -999
2008-06-25 07:24:24 51°17.958 2°34.663 -999 -999 -999 -999 -999
2008-06-25 07:24:29 51°17.96 2°34.639 -999 -999 -999 -999 -999
2008-06-25 07:24:35 51°17.962 2°34.611 -999 -999 -999 -999 -999
2008-06-25 07:24:40 51°17.964 2°34.589 -999 -999 -999 -999 -999
2008-06-25 07:24:44 51°17.965 2°34.571 -999 -999 -999 -999 -999
2008-06-25 07:24:50 51°17.967 2°34.546 -999 -999 -999 -999 -999
2008-06-25 07:24:55 51°17.968 2°34.526 -999 -999 -999 -999 -999
2008-06-25 07:24:59 51°17.969 2°34.51 -999 -999 -999 -999 -999
2008-06-25 07:25:04 51°17.97 2°34.491 -999 -999 -999 -999 -999
2008-06-25 07:25:09 51°17.971 2°34.471 -999 -999 -999 -999 -999
2008-06-25 07:25:14 51°17.972 2°34.452 -999 -999 -999 -999 -999
2008-06-25 07:25:19 51°17.973 2°34.434 -999 -999 -999 -999 -999
2008-06-25 07:25:24 51°17.974 2°34.417 -999 -999 -999 -999 -999
2008-06-25 07:25:29 51°17.975 2°34.401 -999 -999 -999 -999 -999
2008-06-25 07:25:34 51°17.976 2°34.386 -999 -999 -999 -999 -999
2008-06-25 07:25:39 51°17.977 2°34.371 -999 -999 -999 -999 -999
2008-06-25 07:25:44 51°17.978 2°34.357 -999 -999 -999 -999 -999
2008-06-25 07:25:49 51°17.979 2°34.344 -999 -999 -999 -999 -999
2008-06-25 07:25:54 51°17.98 2°34.331 -999 -999 -999 -999 -999
2008-06-25 07:26:00 51°17.981 2°34.316 -999 -999 -999 -999 -999
2008-06-25 07:26:04 51°17.982 2°34.306 -999 -999 -999 -999 -999
2008-06-25 07:26:09 51°17.982 2°34.294 -999 -999 -999 -999 -999
2008-06-25 07:26:14 51°17.983 2°34.283 -999 -999 -999 -999 -999
2008-06-25 07:26:19 51°17.984 2°34.273 -999 -999 -999 -999 -999
2008-06-25 07:26:24 51°17.985 2°34.263 -999 -999 -999 -999 -999
2008-06-25 07:26:29 51°17.985 2°34.253 -999 -999 -999 -999 -999
2008-06-25 07:26:34 51°17.985 2°34.244 -999 -999 -999 -999 -999
2008-06-25 07:26:40 51°17.985 2°34.234 -999 -999 -999 -999 -999
2008-06-25 07:26:44 51°17.985 2°34.227 -999 -999 -999 -999 -999
2008-06-25 07:26:49 51°17.984 2°34.22 -999 -999 -999 -999 -999
2008-06-25 07:26:54 51°17.984 2°34.213 -999 -999 -999 -999 -999
2008-06-25 07:26:59 51°17.982 2°34.207 -999 -999 -999 -999 -999
2008-06-25 07:27:04 51°17.981 2°34.202 -999 -999 -999 -999 -999
2008-06-25 07:27:09 51°17.98 2°34.197 -999 -999 -999 -999 -999
2008-06-25 07:27:14 51°17.979 2°34.192 -999 -999 -999 -999 -999
2008-06-25 07:27:19 51°17.977 2°34.188 -999 -999 -999 -999 -999
2008-06-25 07:27:24 51°17.975 2°34.183 -999 -999 -999 -999 -999
2008-06-25 07:27:29 51°17.974 2°34.18 -999 -999 -999 -999 -999
2008-06-25 07:27:34 51°17.972 2°34.176 -999 -999 -999 -999 -999
2008-06-25 07:27:39 51°17.97 2°34.174 -999 -999 -999 -999 -999
2008-06-25 07:27:44 51°17.969 2°34.17 -999 -999 -999 -999 -999
2008-06-25 07:27:49 51°17.967 2°34.168 -999 -999 -999 -999 -999
2008-06-25 07:27:54 51°17.966 2°34.165 -999 -999 -999 -999 -999
2008-06-25 07:27:59 51°17.964 2°34.163 -999 -999 -999 -999 -999
2008-06-25 07:28:04 51°17.963 2°34.16 -999 -999 -999 -999 -999
2008-06-25 07:28:09 51°17.961 2°34.158 -999 -999 -999 -999 -999
2008-06-25 07:28:14 51°17.96 2°34.155 -999 -999 -999 -999 -999
2008-06-25 07:28:19 51°17.958 2°34.153 -999 -999 -999 -999 -999
2008-06-25 07:28:24 51°17.957 2°34.151 -999 -999 -999 -999 -999
2008-06-25 07:28:29 51°17.956 2°34.148 -999 -999 -999 -999 -999
2008-06-25 07:28:34 51°17.955 2°34.146 -999 -999 -999 -999 -999
2008-06-25 07:28:40 51°17.954 2°34.143 -999 -999 -999 -999 -999
2008-06-25 07:28:44 51°17.953 2°34.141 -999 -999 -999 -999 -999
2008-06-25 07:28:49 51°17.952 2°34.138 -999 -999 -999 -999 -999
2008-06-25 07:28:54 51°17.951 2°34.136 -999 -999 -999 -999 -999
2008-06-25 07:29:00 51°17.95 2°34.132 -999 -999 -999 -999 -999
2008-06-25 07:29:04 51°17.95 2°34.13 -999 -999 -999 -999 -999
2008-06-25 07:29:09 51°17.949 2°34.127 -999 -999 -999 -999 -999
2008-06-25 07:29:14 51°17.948 2°34.125 -999 -999 -999 -999 -999
2008-06-25 07:29:19 51°17.947 2°34.122 -999 -999 -999 -999 -999
2008-06-25 07:29:24 51°17.947 2°34.119 -999 -999 -999 -999 -999
2008-06-25 07:29:29 51°17.946 2°34.116 -999 -999 -999 -999 -999
2008-06-25 07:29:34 51°17.946 2°34.113 -999 -999 -999 -999 -999
2008-06-25 07:29:39 51°17.945 2°34.109 -999 -999 -999 -999 -999
2008-06-25 07:29:44 51°17.944 2°34.106 -999 -999 -999 -999 -999
2008-06-25 07:29:49 51°17.944 2°34.103 -999 -999 -999 -999 -999
2008-06-25 07:29:54 51°17.943 2°34.1 -999 -999 -999 -999 -999
2008-06-25 07:29:59 51°17.943 2°34.096 -999 -999 -999 -999 -999
2008-06-25 07:30:04 51°17.942 2°34.093 -999 -999 -999 -999 -999